Hourly Data Report for October 05, 2017

All times are specified in Local Standard Time (LST). Add 1 hour to adjust for Daylight Saving Time where and when it is observed.

SARNIA
ONTARIO

42°59'58.000" N
82°18'32.000" W
181.40 m
6127510
71704
YZR

Download Data

Hourly Data (October 2017)
Hourly Data Report for October 5, 2017
Temp Definition
°C
Dew Point Temp Definition
°C
Rel Hum Definition
%
Wind Dir Definition
10's deg

Wind Spd Definition
km/h
Visibility Definition
km
Stn Press Definition
kPa
Hmdx Definition


Wind Chill Definition


Weather Definition


TIME
00:00 Legend Double Dagger 15.2 14.9 98 26 5 11.3 100.07     LegendNANA
01:00 Legend Double Dagger 14.0 11.5 85 28 8 16.1 100.07     LegendNANA
02:00 Legend Double Dagger 12.7 10.6 87 25 5 16.1 100.05     LegendNANA
03:00 Legend Double Dagger 13.1 10.9 87 22 8 16.1 100.06     LegendNANA
04:00 Legend Double Dagger 11.5 9.9 90 19 8 16.1 100.07     LegendNANA
05:00 Legend Double Dagger 9.9 9.1 95 22 5 16.1 100.09     LegendNANA
06:00 Legend Double Dagger 10.0 8.6 91 25 5 16.1 100.08     LegendNANA
07:00 Legend Double Dagger 11.2 8.1 81 25 11 16.1 100.08     LegendNANA
08:00 Legend Double Dagger 13.8 10.0 78 24 9 16.1 100.06     LegendNANA
09:00 Legend Double Dagger 16.4 11.9 74 24 11 16.1 100.07     LegendNANA
10:00 Legend Double Dagger 18.1 12.1 68 24 15 16.1 100.04     LegendNANA
11:00 Legend Double Dagger 19.5 10.9 57 25 18 16.1 99.94     LegendNANA
12:00 Legend Double Dagger 21.0 9.8 48 26 17 16.1 99.89     LegendNANA
13:00 Legend Double Dagger 21.6 10.3 48 21 13 16.1 99.81     LegendNANA
14:00 Legend Double Dagger 22.7 10.0 44 21 21 16.1 99.75     LegendNANA
15:00 Legend Double Dagger 22.7 9.3 42 21 21 16.1 99.70     LegendNANA
16:00 Legend Double Dagger 23.0 9.1 41 22 18 16.1 99.63     LegendNANA
17:00 Legend Double Dagger 22.0 10.0 46 21 13 16.1 99.65     LegendNANA
18:00 Legend Double Dagger 19.7 10.8 56 22 9 16.1 99.67     LegendNANA
19:00 Legend Double Dagger 18.9 12.5 66 22 5 16.1 99.69     Rain
20:00 Legend Double Dagger 18.3 9.8 57 29 8 16.1 99.74     LegendNANA
21:00 Legend Double Dagger 17.7 9.6 59 27 8 16.1 99.72     LegendNANA
22:00 Legend Double Dagger 17.8 9.8 59 31 8 16.1 99.72     LegendNANA
23:00 Legend Double Dagger 16.8 10.8 67 26 5 16.1 99.71     LegendNANA

Notes on Data Quality.

Legend

  • E = Estimated
  • M = Missing
  • NA = Not Available
  • ‡ = Partner data that is not subject to review by the National Climate Archives
Date modified: